[[[{"header":{"parameterUnit":"kt","parameterCategory":2,"dx":1,"dy":1,"la1":30.253999710083008,"la2":30.299108505249023,"lo1":-89.0895004272461,"lo2":-89.04439544677734,"nx":28,"ny":28,"refTime":"2022-10-21T21:00:00:Z","depth":0,"parameterNumber":1,"parameterNumberName":"U-component_of_WINDS"},"data":[-1.7059,-1.715,-1.7196,-1.7322,-1.7385,-1.7481,-1.753,-1.76,-1.7668,-1.779,-1.7869,-1.7928,-1.8017,-1.8126,-1.8217,-1.8242,-1.8278,-1.8276,-1.8306,-1.8267,-1.8265,-1.8264,-1.8244,-1.8282,-1.8283,-1.8341,-1.8341,-1.8342,-1.7029,-1.7091,-1.717,-1.7279,-1.7348,-1.7377,-1.7468,-1.7525,-1.7611,-1.7695,-1.7775,-1.7888,-1.7984,-1.8076,-1.8178,-1.8226,-1.8247,-1.825,-1.8249,-1.8263,-1.8223,-1.8201,-1.8231,-1.8231,-1.8231,-1.8231,-1.8231,-1.8231,-1.6986,-1.7038,-1.7129,-1.7217,-1.7284,-1.7358,-1.7417,-1.7486,-1.7567,-1.7675,-1.7717,-1.7816,-1.7912,-1.8059,-1.812,-1.8202,-1.8208,-1.8227,-1.8233,-1.8237,-1.8235,-1.8148,-1.8221,-1.8221,-1.8221,-1.8221,-1.8221,0,-1.6969,-1.7003,-1.7082,-1.7175,-1.7242,-1.7319,-1.7399,-1.7437,-1.753,-1.7593,-1.7689,-1.7753,-1.7881,-1.7979,-1.8086,-1.8147,-1.8189,-1.8197,-1.8212,-1.8194,-1.8164,-1.8183,-1.8117,-1.8196,-1.8196,-1.8196,-1.8195,-1.8195,-1.6931,-1.6985,-1.7104,-1.7153,-1.7208,-1.7287,-1.7344,-1.7422,-1.748,-1.7591,-1.7636,-1.7734,-1.7817,-1.7966,-1.8051,-1.8148,-1.817,-1.8194,-1.8185,-1.8165,-1.8174,-1.817,-1.8178,-1.8195,-1.8195,-1.8195,-1.8195,0,-1.6906,-1.698,-1.708,-1.7193,-1.7223,-1.7278,-1.7376,-1.7433,-1.7495,-1.7583,-1.7608,-1.7706,-1.7801,-1.7882,-1.8007,-1.8047,-1.8146,-1.8163,-1.8113,-1.8122,-1.8154,-1.8151,-1.8241,-1.8258,-1.8216,-1.8217,-1.8217,0,-1.6904,-1.6973,-1.7081,-1.7135,-1.7215,-1.7291,-1.7369,-1.743,-1.7512,-1.7582,-1.7638,-1.7703,-1.7797,-1.7874,-1.7933,-1.8028,-1.8051,-1.8088,-1.8104,-1.8084,-1.808,-1.812,-1.8119,-1.8133,-1.8132,-1.8132,-1.8131,0,-1.6858,-1.6996,-1.7084,-1.7128,-1.7255,-1.7296,-1.7352,-1.7444,-1.75,-1.7586,-1.7624,-1.772,-1.7773,-1.7848,-1.7922,-1.7913,-1.8039,-1.8042,-1.8077,-1.8076,-1.8103,-1.8101,-1.8157,-1.8131,-1.813,-1.813,-1.813,0,-1.6868,-1.6949,-1.7065,-1.7173,-1.7207,-1.7265,-1.7363,-1.7431,-1.7525,-1.7565,-1.7634,-1.7682,-1.7769,-1.7766,-1.7888,-1.7855,-1.7905,-1.7948,-1.7952,-1.7967,-1.7962,-1.7987,-1.803,-1.8039,-1.7978,-1.7977,-1.7976,0,-1.6796,-1.6932,-1.6997,-1.7106,-1.718,-1.7238,-1.7305,-1.7385,-1.7444,-1.7518,-1.7584,-1.7669,-1.7683,-1.7721,-1.7771,-1.7844,-1.7887,-1.784,-1.7953,-1.7956,-1.7927,-1.7968,-1.7955,-1.8011,-1.7961,-1.7963,-1.7964,0,-1.675,-1.6902,-1.6916,-1.697,-1.7085,-1.7148,-1.7224,-1.7323,-1.7368,-1.7452,-1.752,-1.764,-1.7657,-1.7719,-1.7769,-1.7816,-1.786,-1.7829,-1.7832,-1.7834,-1.7959,-1.7947,-1.7956,-1.7884,-1.7886,-1.7888,-1.7952,0,-1.6753,-1.683,-1.6872,-1.6986,-1.7046,-1.7118,-1.7201,-1.7254,-1.7295,-1.7355,-1.7456,-1.7544,-1.7648,-1.7678,-1.7719,-1.7801,-1.7801,-1.7818,-1.7823,-1.7848,-1.7871,-1.7881,-1.7781,-1.7781,-1.7782,-1.7782,0,0,-1.6667,-1.6778,-1.6846,-1.6921,-1.6977,-1.7036,-1.7106,-1.7167,-1.729,-1.7329,-1.7331,-1.7513,-1.7585,-1.77,-1.7714,-1.7755,-1.7779,-1.7766,-1.7835,-1.784,-1.7845,-1.7869,-1.7877,-1.7783,-1.7784,-1.7784,-1.7784,0,-1.6685,-1.675,-1.6816,-1.6882,-1.6981,-1.7041,-1.7057,-1.7167,-1.7209,-1.7307,-1.7358,-1.7429,-1.7571,-1.7642,-1.7696,-1.7754,-1.779,-1.7779,-1.7782,-1.7837,-1.7841,-1.7846,-1.787,-1.7877,-1.7785,-1.7785,-1.7785,0,-1.6656,-1.6735,-1.6774,-1.69,-1.6966,-1.7041,-1.7065,-1.7142,-1.72,-1.7264,-1.7361,-1.7421,-1.7522,-1.7619,-1.7665,-1.767,-1.7796,-1.777,-1.7769,-1.7777,-1.7835,-1.784,-1.7845,-1.7781,-1.7781,-1.778,0,0,-1.6661,-1.6731,-1.6841,-1.691,-1.6948,-1.7037,-1.7085,-1.713,-1.7217,-1.7251,-1.733,-1.7415,-1.7499,-1.7553,-1.7636,-1.773,-1.7759,-1.7766,-1.7766,-1.7766,-1.7774,-1.7831,-1.7836,-1.7779,-1.7779,-1.7779,0,0,-1.6664,-1.6792,-1.6817,-1.6907,-1.6985,-1.71,-1.7141,-1.7175,-1.7258,-1.7259,-1.7343,-1.7369,-1.7461,-1.7519,-1.749,-1.764,-1.7643,-1.7652,-1.7599,-1.7601,-1.7601,-1.7586,-1.753,0,0,0,0,0,-1.6724,-1.6776,-1.6797,-1.6824,-1.6984,-1.7088,-1.7109,-1.7177,-1.7178,-1.7209,-1.728,-1.7314,-1.752,-1.7497,-1.7524,-1.7557,-1.7761,-1.7764,-1.7767,-1.7721,-1.7722,-1.7722,0,0,0,0,0,0,-1.6735,-1.6768,-1.6796,-1.6911,-1.6948,-1.7087,-1.7103,-1.7123,-1.7176,-1.7181,-1.7299,-1.7318,-1.738,-1.7487,-1.7511,-1.7541,-1.7522,-1.7762,-1.7765,-1.7767,-1.7721,-1.7722,-1.7722,0,0,0,0,0,-1.6745,-1.6771,-1.7009,-1.6911,-1.6943,-1.7045,-1.7101,-1.7118,-1.7161,-1.7271,-1.7291,-1.7207,-1.7379,-1.7404,-1.7502,-1.7528,-1.7506,-1.7514,-1.7764,-1.7766,-1.7768,-1.7722,0,0,0,0,0,0,-1.6751,-1.6789,-1.7017,-1.7029,-1.6895,-1.7039,-1.7064,-1.7114,-1.725,-1.7269,-1.7183,-1.7185,-1.7379,-1.7399,-1.7418,-1.7519,-1.7493,-1.7502,-1.7507,-1.7765,-1.7767,-1.7769,0,0,0,0,0,0,-1.6775,-1.6799,-1.7023,-1.7,-1.7011,-1.7033,-1.7055,-1.7148,-1.7251,-1.7154,-1.716,-1.7183,-1.7352,-1.7395,-1.741,-1.7553,-1.7483,-1.7491,-1.7497,-1.7501,-1.7767,-1.7768,0,0,0,0,0,0,-1.6786,-1.6807,-1.6997,-1.7005,-1.7014,-1.7159,-1.7117,-1.7278,-1.7227,-1.7147,-1.7224,-1.7223,-1.7347,-1.7364,-1.7404,-1.754,-1.755,-1.7483,-1.7489,-1.7493,-1.7495,0,0,0,0,0,0,0,-1.6796,-1.6641,-1.6943,-1.701,-1.7018,-1.7144,-1.7147,-1.7151,-1.7226,-1.7225,-1.7224,-1.7224,-1.7435,-1.7444,-1.7453,-1.753,0,0,-1.7482,-1.7486,0,0,0,0,0,0,0,0,-1.6634,-1.664,-1.6943,-1.6946,-1.6948,-1.7144,-1.7147,-1.715,-1.7226,-1.7225,-1.7225,-1.7224,-1.7437,-1.7445,-1.7452,0,0,0,0,0,0,0,0,0,0,0,0,0,0,0,-1.6943,-1.6945,0,-1.7145,-1.7147,-1.7149,-1.7226,-1.7225,-1.7225,-1.7224,-1.7439,-1.7445,-1.7452,0,0,0,0,0,0,0,0,0,0,0,0,0,0,0,0,0,0,0,0,0,0,0,0,0,0,0,0,0,0,0,0,0,0,0,0,0,0,0,0,0,0,0,0,0,0,0,0,0,0,0,0,0,0,0,0,0,0,0,0,0,0,0,0,0,0,0,0,0]}],[{"header":{"parameterUnit":"kt","parameterCategory":2,"dx":1,"dy":1,"la1":30.253999710083008,"la2":30.299108505249023,"lo1":-89.0895004272461,"lo2":-89.04439544677734,"nx":28,"ny":28,"refTime":"2022-10-21T21:00:00:Z","depth":0,"parameterNumber":2,"parameterNumberName":"V-component_of_WINDS"},"data":[5.1208,5.1272,5.125,5.1313,5.1305,5.1343,5.135,5.1357,5.1357,5.14,5.142,5.1406,5.1398,5.1417,5.1438,5.1431,5.1439,5.1475,5.146,5.1318,5.1297,5.1277,5.1258,5.1479,5.1479,5.1607,5.1609,5.1609,5.1097,5.109,5.1119,5.1132,5.1155,5.1106,5.1113,5.1135,5.1171,5.1173,5.1194,5.1231,5.1257,5.1237,5.1258,5.1285,5.1263,5.1292,5.1287,5.1286,5.1135,5.1116,5.1309,5.1309,5.1309,5.1309,5.1309,5.1309,5.089,5.0931,5.0927,5.0958,5.0959,5.0968,5.1003,5.0985,5.1013,5.1034,5.1006,5.1047,5.1045,5.1062,5.1063,5.1093,5.1057,5.1082,5.1088,5.1093,5.11,5.0908,5.1097,5.1097,5.1096,5.1096,5.1095,0,5.073,5.071,5.0738,5.0758,5.078,5.0795,5.0805,5.0827,5.0778,5.0804,5.0838,5.0855,5.0888,5.0917,5.0934,5.093,5.088,5.0876,5.0892,5.0903,5.0909,5.09,5.0649,5.087,5.0868,5.0866,5.0865,5.0865,5.0514,5.0568,5.0555,5.0577,5.0578,5.0616,5.0633,5.0587,5.0608,5.0614,5.0652,5.0683,5.0704,5.0764,5.0742,5.0767,5.0743,5.0828,5.0746,5.0754,5.0737,5.0732,5.0734,5.0843,5.0846,5.0848,5.085,0,5.0393,5.0361,5.0437,5.0421,5.0418,5.0476,5.0461,5.0501,5.048,5.0532,5.0541,5.0509,5.0545,5.051,5.0545,5.0525,5.0612,5.0591,5.061,5.0602,5.067,5.0662,5.091,5.0938,5.0715,5.0717,5.0719,0,5.0194,5.0267,5.0213,5.026,5.0337,5.0289,5.0367,5.0357,5.0356,5.0397,5.0338,5.0377,5.0327,5.036,5.0332,5.0398,5.0407,5.0393,5.0384,5.0396,5.0396,5.0402,5.0389,5.0369,5.0367,5.0366,5.0365,0,5.0004,5.0064,5.0139,5.0147,5.0139,5.0176,5.0174,5.0174,5.0193,5.0212,5.0223,5.025,5.0264,5.0284,5.0247,5.0192,5.0329,5.0246,5.0315,5.0315,5.0344,5.0342,5.0574,5.0364,5.0363,5.0363,5.0362,0,4.9837,4.9859,4.9976,4.9965,4.9983,5.0035,5.0056,5.0093,5.0098,5.0083,5.0098,5.0054,5.0114,5.0032,5.0111,5.0049,5.0065,5.0059,5.0064,5.0063,4.9971,5.01,5.033,5.0349,5.0066,5.0064,5.0062,0,4.9624,4.9735,4.9695,4.9809,4.9854,4.9782,4.9838,4.9845,4.983,4.9865,4.9849,4.9891,4.9824,4.9832,4.9876,4.986,4.9941,4.9849,4.9894,4.9896,4.9889,5.0101,5.0141,5.0284,5.003,5.0033,5.0036,0,4.9455,4.9447,4.9471,4.9476,4.9481,4.9521,4.9587,4.9619,4.9644,4.9662,4.9712,4.9775,4.9723,4.9739,4.9707,4.9755,4.9885,4.9695,4.9694,4.9725,5.0014,5.005,5.0074,4.9852,4.9856,4.9859,5.001,0,4.9198,4.9253,4.9317,4.9338,4.9365,4.9437,4.9401,4.9432,4.9397,4.938,4.9458,4.9459,4.9492,4.9514,4.9482,4.9605,4.9578,4.9526,4.944,4.9582,4.9631,4.9651,4.937,4.9368,4.9366,4.9364,0,0,4.8999,4.9077,4.9034,4.9097,4.9116,4.9041,4.912,4.9131,4.9154,4.9167,4.9121,4.9208,4.9211,4.9309,4.935,4.9367,4.9383,4.9337,4.9517,4.9534,4.955,4.9602,4.9624,4.936,4.9359,4.9358,4.9357,0,4.8897,4.8905,4.8986,4.8994,4.9005,4.8984,4.9004,4.9002,4.8995,4.9075,4.901,4.9054,4.9129,4.9137,4.9151,4.9325,4.9273,4.9339,4.9441,4.9495,4.9516,4.9533,4.9589,4.9611,4.9352,4.9352,4.9353,0,4.872,4.8719,4.8756,4.88,4.8807,4.886,4.8762,4.8824,4.8861,4.8777,4.8856,4.8852,4.8863,4.8964,4.9008,4.8966,4.9174,4.9105,4.9119,4.9121,4.9172,4.9196,4.9218,4.893,4.8929,4.8928,0,0,4.8636,4.8689,4.8675,4.8776,4.8785,4.8756,4.8781,4.875,4.8762,4.8768,4.8761,4.8774,4.8815,4.8844,4.8883,4.9,4.8995,4.9055,4.9075,4.9091,4.9103,4.9158,4.9182,4.8923,4.8923,4.8923,0,0,4.8596,4.8583,4.8547,4.866,4.8674,4.8667,4.8729,4.8683,4.8714,4.8702,4.8652,4.8653,4.8747,4.8747,4.8683,4.885,4.8768,4.8783,4.8847,4.8872,4.8891,4.8888,4.8582,0,0,0,0,0,4.8474,4.8584,4.8551,4.8565,4.8623,4.8685,4.8692,4.8653,4.8593,4.8643,4.8629,4.8574,4.87,4.8643,4.8657,4.8727,4.8858,4.8869,4.888,4.8991,4.9017,4.9039,0,0,0,0,0,0,4.8479,4.8496,4.8548,4.8546,4.8559,4.8681,4.8571,4.8563,4.8587,4.8575,4.8579,4.8575,4.8542,4.8633,4.8646,4.8714,4.8577,4.8862,4.8872,4.8881,4.8999,4.9021,4.9039,0,0,0,0,0,4.8483,4.8497,4.86,4.8544,4.8555,4.8529,4.8566,4.8559,4.8577,4.8558,4.8552,4.8545,4.8545,4.8554,4.8641,4.8709,4.8568,4.8573,4.8869,4.8876,4.8883,4.901,0,0,0,0,0,0,4.8486,4.849,4.8601,4.8603,4.85,4.8522,4.8524,4.8556,4.8557,4.8553,4.8521,4.8512,4.8549,4.8555,4.8562,4.8709,4.856,4.8565,4.8568,4.8874,4.888,4.8886,0,0,0,0,0,0,4.8482,4.8492,4.8602,4.8549,4.8544,4.8515,4.8517,4.8586,4.8558,4.852,4.8512,4.8517,4.8538,4.8556,4.8561,4.8671,4.8554,4.8559,4.8562,4.8565,4.8879,4.8884,0,0,0,0,0,0,4.8486,4.8494,4.8548,4.8544,4.854,4.8556,4.8575,4.8636,4.8513,4.8521,4.8501,4.8495,4.8541,4.8545,4.8561,4.8669,4.867,4.8554,4.8558,4.856,4.8562,0,0,0,0,0,0,0,4.8488,4.8441,4.8591,4.8541,4.8537,4.8619,4.8619,4.862,4.8512,4.8507,4.8502,4.8498,4.8526,4.8531,4.8537,4.8668,0,0,4.8554,4.8556,0,0,0,0,0,0,0,0,4.8437,4.844,4.8591,4.8591,4.8592,4.8619,4.8619,4.862,4.8511,4.8507,4.8503,4.85,4.8527,4.8531,4.8536,0,0,0,0,0,0,0,0,0,0,0,0,0,0,0,4.8591,4.8591,0,4.8619,4.8619,4.862,4.8511,4.8507,4.8504,4.8501,4.8528,4.8532,4.8536,0,0,0,0,0,0,0,0,0,0,0,0,0,0,0,0,0,0,0,0,0,0,0,0,0,0,0,0,0,0,0,0,0,0,0,0,0,0,0,0,0,0,0,0,0,0,0,0,0,0,0,0,0,0,0,0,0,0,0,0,0,0,0,0,0,0,0,0,0]}]]]